TimeMST,TemperatureF,Dew PointF,Humidity,Sea Level PressureIn,VisibilityMPH,Wind Direction,Wind SpeedMPH,Gust SpeedMPH,PrecipitationIn,Events,Conditions,WindDirDegrees,DateUTC
12:57 AM,61.0,35.1,38,30.01,10.0,Calm,Calm,-,N/A,,Clear,0,2014-02-13 07:57:00
1:57 AM,60.1,33.1,36,30.01,10.0,Calm,Calm,-,N/A,,Clear,0,2014-02-13 08:57:00
2:57 AM,60.1,28.9,31,29.99,10.0,East,3.5,-,N/A,,Clear,80,2014-02-13 09:57:00
3:57 AM,60.1,24.1,25,29.98,10.0,NE,8.1,-,N/A,,Clear,50,2014-02-13 10:57:00
4:57 AM,59.0,24.1,26,29.98,10.0,NNE,5.8,-,N/A,,Clear,30,2014-02-13 11:57:00
5:57 AM,57.9,25.0,28,29.98,10.0,NNE,5.8,-,N/A,,Clear,30,2014-02-13 12:57:00
6:57 AM,55.9,27.0,33,30.00,10.0,NE,5.8,-,N/A,,Partly Cloudy,40,2014-02-13 13:57:00
7:57 AM,55.9,26.1,32,30.02,10.0,NNE,6.9,-,N/A,,Partly Cloudy,20,2014-02-13 14:57:00
8:57 AM,61.0,27.0,27,30.03,10.0,NNE,6.9,-,N/A,,Partly Cloudy,30,2014-02-13 15:57:00
9:57 AM,66.9,27.0,22,30.05,10.0,NNE,11.5,-,N/A,,Scattered Clouds,30,2014-02-13 16:57:00
10:57 AM,73.0,27.0,18,30.05,10.0,NE,10.4,-,N/A,,Scattered Clouds,40,2014-02-13 17:57:00
11:57 AM,79.0,27.0,15,30.03,10.0,NNE,8.1,-,N/A,,Scattered Clouds,30,2014-02-13 18:57:00
12:57 PM,82.0,26.1,13,30.00,10.0,NE,6.9,-,N/A,,Scattered Clouds,40,2014-02-13 19:57:00
1:57 PM,84.9,24.1,11,29.96,10.0,North,4.6,-,N/A,,Mostly Cloudy,10,2014-02-13 20:57:00
2:57 PM,86.0,21.9,10,29.94,10.0,Calm,Calm,-,N/A,,Mostly Cloudy,0,2014-02-13 21:57:00
3:57 PM,88.0,19.9,8,29.92,10.0,North,3.5,-,N/A,,Mostly Cloudy,10,2014-02-13 22:57:00
4:57 PM,88.0,19.9,8,29.91,10.0,Calm,Calm,-,N/A,,Clear,0,2014-02-13 23:57:00
5:57 PM,84.9,21.9,10,29.91,10.0,Calm,Calm,-,N/A,,Clear,0,2014-02-14 00:57:00
6:57 PM,78.1,30.9,18,29.92,10.0,WSW,3.5,-,N/A,,Clear,250,2014-02-14 01:57:00
7:57 PM,73.0,35.1,25,29.91,10.0,Calm,Calm,-,N/A,,Clear,0,2014-02-14 02:57:00
8:57 PM,72.0,33.1,24,29.93,10.0,Calm,Calm,-,N/A,,Clear,0,2014-02-14 03:57:00
9:57 PM,68.0,34.0,28,29.95,10.0,ENE,5.8,-,N/A,,Clear,70,2014-02-14 04:57:00
10:57 PM,63.0,35.1,35,29.95,10.0,Calm,Calm,-,N/A,,Clear,0,2014-02-14 05:57:00
11:57 PM,62.1,35.1,37,29.95,10.0,SSE,3.5,-,N/A,,Clear,150,2014-02-14 06:57:00